When you browse on this site, cookies collect data to enhance your experience and personalize the content and advertising you see.
Visit our Privacy Policy to learn more. By continuing to use the site, you agree to this use of cookies and data.

Hourly Weather Graneros

Today, 15 July, Wednesday

Time Temperature Precipitation Wind Pressure Humidity
00:00 +14°C° 0 mm 1 mps 719 mmHg 28%
01:00 +13°C° 0 mm 1 mps 719 mmHg 28%
02:00 +13°C° 0 mm 1 mps 719 mmHg 28%
03:00 +13°C° 0 mm 1 mps 719 mmHg 28%
04:00 +13°C° 0 mm 1 mps 718 mmHg 28%
05:00 +13°C° 0 mm 1 mps 719 mmHg 29%
06:00 +13°C° 0 mm 1 mps 719 mmHg 29%
07:00 +13°C° 0 mm 2 mps 719 mmHg 30%
08:00 +15°C° 0 mm 1 mps 719 mmHg 33%
09:00 +18°C° 0 mm 1 mps 719 mmHg 37%
10:00 +18°C° 0 mm 0 mps 719 mmHg 40%
11:00 +21°C° 0 mm 1 mps 719 mmHg 41%
12:00 +21°C° 0 mm 1 mps 719 mmHg 42%
13:00 +22°C° 0 mm 1 mps 719 mmHg 44%
14:00 +20°C° 0 mm 1 mps 719 mmHg 51%
15:00 +19°C° 0 mm 1 mps 719 mmHg 59%
16:00 +18°C° 0 mm 1 mps 719 mmHg 66%
17:00 +15°C° 0 mm 1 mps 719 mmHg 66%
18:00 +14°C° 0 mm 1 mps 719 mmHg 66%
19:00 +12°C° 0 mm 1 mps 720 mmHg 66%
20:00 +12°C° 0 mm 1 mps 720 mmHg 62%
21:00 +12°C° 0 mm 1 mps 720 mmHg 58%
22:00 +12°C° 0 mm 1 mps 720 mmHg 53%
23:00 +12°C° 0 mm 1 mps 720 mmHg 50%

Tomorrow, 16 July, Thursday

Time Temperature Precipitation Wind Pressure Humidity
00:00 +12°C° 0 mm 1 mps 720 mmHg 47%
01:00 +12°C° 0 mm 1 mps 720 mmHg 44%
02:00 +12°C° 0 mm 1 mps 720 mmHg 43%
03:00 +12°C° 0 mm 2 mps 719 mmHg 41%
04:00 +13°C° 0 mm 2 mps 719 mmHg 40%
05:00 +13°C° 0 mm 2 mps 719 mmHg 39%
06:00 +13°C° 0 mm 2 mps 719 mmHg 38%
07:00 +13°C° 0 mm 1 mps 719 mmHg 38%
08:00 +14°C° 0 mm 1 mps 719 mmHg 40%
09:00 +16°C° 0 mm 1 mps 720 mmHg 43%
10:00 +17°C° 0 mm 0 mps 720 mmHg 45%
11:00 +17°C° 0 mm 0 mps 719 mmHg 47%
12:00 +19°C° 0 mm 1 mps 719 mmHg 49%
13:00 +19°C° 0 mm 1 mps 718 mmHg 50%
14:00 +17°C° 0 mm 0 mps 718 mmHg 55%
15:00 +16°C° 0 mm 0 mps 718 mmHg 59%
16:00 +15°C° 0 mm 0 mps 718 mmHg 64%
17:00 +14°C° 0 mm 0 mps 718 mmHg 61%
18:00 +14°C° 0 mm 0 mps 718 mmHg 58%
19:00 +14°C° 0 mm 1 mps 718 mmHg 55%
20:00 +14°C° 0 mm 1 mps 718 mmHg 53%
21:00 +14°C° 0 mm 1 mps 717 mmHg 51%
22:00 +14°C° 0 mm 1 mps 717 mmHg 48%
23:00 +14°C° 0 mm 1 mps 717 mmHg 48%

Day after tomorrow, 17 July, Friday

Time Temperature Precipitation Wind Pressure Humidity
00:00 +14°C° 0 mm 1 mps 717 mmHg 47%
01:00 +14°C° 0 mm 1 mps 716 mmHg 47%
02:00 +14°C° 0 mm 1 mps 716 mmHg 48%
03:00 +13°C° 0 mm 1 mps 716 mmHg 49%
04:00 +13°C° 0 mm 1 mps 716 mmHg 50%
05:00 +13°C° 0 mm 1 mps 716 mmHg 50%
06:00 +13°C° 0 mm 1 mps 716 mmHg 51%
07:00 +13°C° 0 mm 1 mps 716 mmHg 52%
08:00 +14°C° 0 mm 1 mps 716 mmHg 54%
09:00 +15°C° 0 mm 1 mps 716 mmHg 56%
10:00 +16°C° 0 mm 1 mps 716 mmHg 58%
11:00 +16°C° 0 mm 1 mps 716 mmHg 55%
12:00 +18°C° 0 mm 1 mps 716 mmHg 53%
13:00 +18°C° 0 mm 2 mps 716 mmHg 50%
14:00 +17°C° 0 mm 2 mps 716 mmHg 55%
15:00 +16°C° 0 mm 1 mps 716 mmHg 59%
16:00 +15°C° 0 mm 1 mps 716 mmHg 64%
17:00 +15°C° 0 mm 1 mps 716 mmHg 62%
18:00 +14°C° 0 mm 1 mps 716 mmHg 60%
19:00 +13°C° 0 mm 1 mps 716 mmHg 58%
20:00 +13°C° 0 mm 2 mps 717 mmHg 58%
21:00 +13°C° 0 mm 2 mps 717 mmHg 58%
22:00 +13°C° 0 mm 2 mps 717 mmHg 58%
23:00 +13°C° 0 mm 2 mps 717 mmHg 59%

18 July, Saturday

Time Temperature Precipitation Wind Pressure Humidity
00:00 +13°C° 0 mm 2 mps 717 mmHg 61%
01:00 +12°C° 0 mm 2 mps 717 mmHg 62%
02:00 +12°C° 0.1 mm 2 mps 717 mmHg 63%
03:00 +12°C° 0.1 mm 2 mps 717 mmHg 65%
04:00 +12°C° 0.1 mm 1 mps 717 mmHg 67%
05:00 +12°C° 0.2 mm 1 mps 717 mmHg 68%
06:00 +11°C° 0.2 mm 1 mps 717 mmHg 70%
07:00 +11°C° 0.2 mm 1 mps 718 mmHg 71%
08:00 +12°C° 0 mm 1 mps 718 mmHg 69%
09:00 +13°C° 0 mm 1 mps 718 mmHg 66%
10:00 +15°C° 0 mm 1 mps 718 mmHg 64%
11:00 +15°C° 0 mm 1 mps 718 mmHg 63%
12:00 +16°C° 0 mm 1 mps 717 mmHg 62%
13:00 +16°C° 0 mm 1 mps 717 mmHg 62%
14:00 +16°C° 0.1 mm 1 mps 717 mmHg 66%
15:00 +15°C° 0.1 mm 1 mps 717 mmHg 71%
16:00 +15°C° 0.1 mm 1 mps 717 mmHg 76%
17:00 +14°C° 0 mm 1 mps 717 mmHg 78%
18:00 +12°C° 0 mm 0 mps 717 mmHg 79%
19:00 +12°C° 0 mm 0 mps 718 mmHg 81%
20:00 +11°C° 0 mm 0 mps 718 mmHg 82%
21:00 +11°C° 0 mm 0 mps 718 mmHg 83%
22:00 +10°C° 0 mm 0 mps 718 mmHg 84%
23:00 +10°C° 0 mm 0 mps 718 mmHg 85%

19 July, Sunday

Time Temperature Precipitation Wind Pressure Humidity
00:00 +10°C° 0 mm 0 mps 718 mmHg 85%
01:00 +10°C° 0 mm 0 mps 717 mmHg 85%
02:00 +10°C° 0 mm 0 mps 717 mmHg 85%
03:00 +9°C° 0 mm 0 mps 717 mmHg 84%
04:00 +9°C° 0 mm 0 mps 717 mmHg 83%
05:00 +9°C° 0 mm 0 mps 717 mmHg 83%
06:00 +9°C° 0 mm 0 mps 717 mmHg 83%
07:00 +9°C° 0 mm 0 mps 717 mmHg 83%
08:00 +11°C° 0 mm 0 mps 717 mmHg 79%
09:00 +13°C° 0 mm 0 mps 717 mmHg 75%
10:00 +15°C° 0 mm 1 mps 717 mmHg 71%
11:00 +16°C° 0 mm 1 mps 717 mmHg 68%
12:00 +18°C° 0 mm 1 mps 716 mmHg 65%
13:00 +17°C° 0 mm 2 mps 716 mmHg 62%
14:00 +17°C° 0.2 mm 2 mps 716 mmHg 67%
15:00 +16°C° 0.2 mm 2 mps 716 mmHg 72%
16:00 +15°C° 0.2 mm 2 mps 716 mmHg 76%
17:00 +14°C° 0.3 mm 1 mps 717 mmHg 79%
18:00 +13°C° 0.3 mm 1 mps 717 mmHg 82%
19:00 +12°C° 0.3 mm 1 mps 717 mmHg 85%
20:00 +12°C° 0.3 mm 1 mps 717 mmHg 86%
21:00 +12°C° 0.3 mm 1 mps 717 mmHg 87%
22:00 +12°C° 0.3 mm 1 mps 717 mmHg 88%
23:00 +12°C° 0.2 mm 1 mps 717 mmHg 88%

20 July, Monday

Time Temperature Precipitation Wind Pressure Humidity
00:00 +11°C° 0.2 mm 1 mps 717 mmHg 87%
01:00 +11°C° 0.2 mm 1 mps 717 mmHg 87%
02:00 +11°C° 0.2 mm 1 mps 717 mmHg 87%
03:00 +11°C° 0.2 mm 1 mps 717 mmHg 87%
04:00 +11°C° 0.2 mm 1 mps 717 mmHg 88%
05:00 +11°C° 0.2 mm 1 mps 717 mmHg 89%
06:00 +11°C° 0.2 mm 1 mps 717 mmHg 89%
07:00 +11°C° 0.2 mm 1 mps 718 mmHg 90%
08:00 +12°C° 0.3 mm 1 mps 718 mmHg 87%
09:00 +13°C° 0.3 mm 1 mps 718 mmHg 83%
10:00 +14°C° 0.3 mm 1 mps 718 mmHg 80%
11:00 +14°C° 0.4 mm 1 mps 717 mmHg 79%
12:00 +14°C° 0.4 mm 1 mps 717 mmHg 78%
13:00 +14°C° 0.4 mm 1 mps 717 mmHg 78%
14:00 +14°C° 0.6 mm 1 mps 717 mmHg 82%
15:00 +13°C° 0.6 mm 2 mps 717 mmHg 86%
16:00 +12°C° 0.6 mm 2 mps 717 mmHg 90%
17:00 +12°C° 1.6 mm 2 mps 717 mmHg 91%
18:00 +11°C° 1.6 mm 1 mps 718 mmHg 93%
19:00 +11°C° 1.6 mm 1 mps 718 mmHg 95%
20:00 +10°C° 2.2 mm 1 mps 718 mmHg 95%
21:00 +10°C° 2.2 mm 1 mps 718 mmHg 94%
22:00 +10°C° 2.2 mm 1 mps 719 mmHg 94%
23:00 +9°C° 2.1 mm 1 mps 719 mmHg 94%
Show more